{"data":{"norad_id":66021,"intl_designator":"2025-232S","name":"STARLINK-35432","alt_names":[],"object_type":"PAYLOAD","status":"ACTIVE","operator":null,"country":"US","launch_date":"2025-10-16","launch_site_code":"AFETR","launch_vehicle":null,"mission":null,"orbit_class":"UNKNOWN","rcs_meters":null,"size_class":null,"mass_kg":null,"dimensions":null,"purposes":["comms"],"wikipedia_slug":null,"has_3d_model":false,"image_url":null,"decayed_at":null,"tle_current":{"epoch":"2026-05-25T03:52:15.976128Z","epoch_age_seconds":61143,"freshness":"FRESH","line1":"1 66021U 25232S   26145.16129602  .00009174  00000+0  32146-3 0  9993","line2":"2 66021  53.1599 108.7079 0001336  90.2577 269.8576 15.30203186 35149","mean_motion":15.30203186,"eccentricity":0.0001336,"inclination_deg":53.1599,"raan_deg":108.7079,"arg_perigee_deg":90.2577,"mean_anomaly_deg":269.8576,"bstar":0.00032146,"rev_number":3514,"period_min":94.105149771921,"perigee_km":474.28995004855,"apogee_km":476.12116317967,"semimajor_km":6853.3425566141,"source":"CELESTRAK","updated_at":"2026-05-25T13:38:21.016897Z"}}}